Regional Weather Roundup
Issued by NWS

Home | Current Version | Previous Version | Text Only | Print | Product List | Glossary Off
Versions: 1 2 3 4 5 6 7 8 9 10 11 12 13 14 15 16 17 18 19 20 21 22 23 24 25 26 27 28 29 30 31 32 33 34 35 36 37 38 39 40 41 42 43 44 45 46 47 48 49 50

000
ASUS43 KDMX 251407
RWRIA

WEATHER ROUNDUP FOR IOWA
NATIONAL WEATHER SERVICE DES MOINES IA
900 AM CDT MON MAY 25 2015

NOTE: "FAIR" INDICATES FEW OR NO CLOUDS BELOW 12,000 FEET WITH NO
SIGNIFICANT WEATHER AND/OR OBSTRUCTIONS TO VISIBILITY.

* - THESE STATIONS ARE NOT NWS STATIONS...THUS NOT UNDER NWS
QUALITY CONTROL.  THEY ALSO DO NOT REPORT WEATHER SUCH
AS PRECIPITATION OR FOG.

IAZ001>003-012>014-020>022-031>034-043>046-251500-
   NORTHWEST IOWA

CITY           SKY/WX    TMP DP  RH WIND       PRES   REMARKS
CARROLL *      PTSUNNY   66  64  94 SW17      29.80R
CHEROKEE *     MOSUNNY   64  63  94 SW8       29.77S
DENISON *      CLOUDY    63  63 100 S14       29.78S FOG
LE MARS *      CLOUDY    63  61  94 S7        29.78F
ORANGE CITY *  CLOUDY    61  61 100 SW9       29.77R
SHELDON *      CLOUDY    63  63 100 SW9       29.75R
SIOUX CITY     CLOUDY    62  60  93 S7        29.79R FOG
SPENCER        CLOUDY    63  60  90 W13       29.76S
STORM LAKE *   PTSUNNY   63  61  94 SW9       29.80R FOG
$$

IAZ055>058-069>071-079>083-090>094-251500-
   SOUTHWEST IOWA

CITY           SKY/WX    TMP DP  RH WIND       PRES   REMARKS
ATLANTIC *     PTSUNNY   64  63  94 S10       29.81F
AUDUBON *      PTSUNNY   63  59  88 S13G22    29.83R
CLARINDA *     MOSUNNY   64  61  88 SE8G15    29.80F
COUNCIL BLFS * SUNNY     64  64 100 S6        29.80F
CRESTON *      PTSUNNY   64  64 100 S18G25    29.86R
HARLAN  *      CLOUDY    64  64 100 S15G24    29.83F
LAMONI         PTSUNNY   67  62  84 SW17G25   29.90R
RED OAK *      PTSUNNY   64  61  88 SE6G12    29.80F
SHENANDOAH *   SUNNY     64  61  88 SE12      29.80F
$$

IAZ047>049-059>061-072>074-084-251500-
   CENTRAL IOWA

CITY           SKY/WX    TMP DP  RH WIND       PRES   REMARKS
AMES           LGT RAIN  66  63  90 SW16      29.81S
ANKENY *       CLOUDY    66  64  94 SW12      29.82S
CHARITON *     CLOUDY    64  63  94 SW9       29.87F
DES MOINES     CLOUDY    67  62  84 SW12      29.82F
GRINNELL*      CLOUDY    64  61  88 SW16      29.86R
KNOXVILLE *    PTSUNNY   64  63  94 SW12G22   29.84F
MARSHALLTOWN   CLOUDY    65  63  93 SW15      29.81R
PELLA *        CLOUDY    64  64 100 SW14G20   29.87R
PERRY *        CLOUDY    64  63  94 SW14      29.81S
$$

IAZ004>006-015-016-023>025-035-036-251500-
   NORTH CENTRAL IOWA

CITY           SKY/WX    TMP DP  RH WIND       PRES   REMARKS
ALGONA *       MOSUNNY   64  64 100 SW13      29.77S
CLARION *      CLOUDY    63 N/A N/A SW13      29.78S HAZE
ESTHERVILLE    CLOUDY    61  58  90 W10       29.74F
FORT DODGE *   CLOUDY    64  61  88 SW12      29.80S
MASON CITY     CLOUDY    63  60  90 SW16      29.78R
FOREST CITY *  CLOUDY    61  61 100 SW12G17   29.77R FOG
IOWA FALLS *   CLOUDY    64  63  94 SW15      29.81R
$$

IAZ007>011-017>019-026>030-037>042-050>054-066-251500-
   NORTHEAST IOWA

CITY           SKY/WX    TMP DP  RH WIND       PRES   REMARKS
CEDAR RAPIDS   CLOUDY    63  63 100 SW14      29.83R
CHARLES CITY * LGT RAIN  64  64 100 SW16      29.78R
CLINTON *      CLOUDY    66  61  82 W18       29.86R
DECORAH *      CLOUDY    64  64 100 SW8G15    29.75R
DUBUQUE        CLOUDY    64  62  93 SW16G22   29.80R FOG
MONTICELLO *   CLOUDY    64  64 100 SW13G18   29.82R FOG
OELWEIN *      CLOUDY    64  64 100 SW15      29.80R
WATERLOO       LGT RAIN  64  62  93 SW13      29.79R
$$

IAZ064-065-067-068-078-251500-
   EAST CENTRAL IOWA

CITY           SKY/WX    TMP DP  RH WIND       PRES   REMARKS
DAVENPORT      PTSUNNY   65  61  87 SW15      29.86R
IOWA CITY      CLOUDY    64  62  93 SW13      29.86R
MT. PLEASANT * CLOUDY    66  64  94 SW17      29.90R
MUSCATINE *    PTSUNNY   66  63  88 SW10      29.87R
QUAD CITIES    CLOUDY    66  62  87 SW10      29.85R
$$

IAZ062-063-075>077-085>089-095>099-251500-
   SOUTHEAST IOWA

CITY           SKY/WX    TMP DP  RH WIND       PRES   REMARKS
BURLINGTON     CLOUDY    66  64  93 SW13      29.89R
FAIRFIELD *    PTSUNNY   64  61  88 SW15G22   29.89R
FORT MADISON * CLOUDY    64  63  94 SW9       29.92R
KEOKUK *       PTSUNNY   68  64  88 SW15      29.91R
OSKALOOSA *    CLOUDY    64  61  88 SW17      29.87S
CENTERVILLE *  PTSUNNY   64  64 100 SW15      29.91S
OTTUMWA        PTSUNNY   66  63  90 SW14      29.88R
WASHINGTON *   PTSUNNY   64  63  94 SW16      29.89R
$$

ABBREVIATIONS USED IN REMARKS
   TC - TEMPERATURES IN CELSIUS
  WCI - WIND CHILL INDEX
   HX - HEAT INDEX
  VSB - VISIBILITY
$$




USA.gov is the U.S. government's official web portal to all federal, state and local government web resources and services.